Regional Weather Roundup
Issued by NWS Charleston, WV

Home | Current Version | Previous Version | Text Only | Print | Product List | Glossary Off
Versions: 1 2 3 4 5 6 7 8 9 10 11 12 13 14 15 16 17 18 19 20 21 22 23 24 25 26 27

000
ASUS41 KRLX 220410
RWRRLX
West Virginia Regional Weather Roundup
National Weather Service Charleston WV
1200 AM EDT SUN APR 22 2018

Note: "fair" indicates few or no clouds below 12,000 feet with no
significant weather and/or obstructions to visibility.

WVZ003-220500-
Northern Panhandle of West Virginia

CITY           SKY/WX    TMP DP  RH WIND       PRES   REMARKS
WHEELING       MOCLDY    50  22  33 NE8       30.35F
$$

WVZ009-220500-
Northwest West Virginia

CITY           SKY/WX    TMP DP  RH WIND       PRES   REMARKS
PARKERSBURG    FAIR      52  23  32 NE5       30.36S
$$

WVZ006-220500-
Western West Virginia

CITY           SKY/WX    TMP DP  RH WIND       PRES   REMARKS
HUNTINGTON     FAIR      55  19  24 E7        30.30S
$$

WVZ015-220500-
West Central West Virginia

CITY           SKY/WX    TMP DP  RH WIND       PRES   REMARKS
CHARLESTON     FAIR      55  21  26 CALM      30.29F
$$

WVZ022-031-220500-
North Central West Virginia

CITY           SKY/WX    TMP DP  RH WIND       PRES   REMARKS
CLARKSBURG     MOCLDY    51  24  34 NE6       30.33F
MORGANTOWN     MOCLDY    50  23  34 CALM      30.36S
$$

WVZ025-035-042-045-220500-
Southern West Virginia

CITY           SKY/WX    TMP DP  RH WIND       PRES   REMARKS
BECKLEY        FAIR      52  21  29 CALM      30.30F
LOGAN          FAIR      57  18  21 NE5       30.28S
BLUEFIELD      FAIR      53  27  36 VRB6      30.30F
LEWISBURG      FAIR      51  29  43 CALM      30.32S
$$

WVZ047-220500-
Northern Mountains of West Virginia

CITY           SKY/WX    TMP DP  RH WIND       PRES   REMARKS
ELKINS         FAIR      44  33  65 CALM      30.33S
$$

WVZ052-220500-
Eastern Panhandle of West Virginia

CITY           SKY/WX    TMP DP  RH WIND       PRES   REMARKS
MARTINSBURG    FAIR      47  32  56 E3        30.35S
PETERSBURG     MOCLDY    42  33  71 CALM      30.35S
$$




USA.gov is the U.S. government's official web portal to all federal, state and local government web resources and services.